Waukesha, WI

11:36 AM CDT on April 26, 2018 (GMT -0500)
Waukesha County

Weather History for KUES - May, 2012

Change the Weather History Date:

Tuesday, May 8, 2012

  Actual Average Record
Temperature  
Mean Temperature 55 °F -  
Max Temperature 64 °F 64 °F 87 °F (1979)
Min Temperature 46 °F 45 °F 30 °F (1976)
Degree Days  
Heating Degree Days 10    
Growing Degree Days 5 (Base 50)    
Moisture  
Dew Point 44 °F    
Average Humidity 74    
Maximum Humidity 94    
Minimum Humidity 42    
Precipitation  
Precipitation 0.00 in - - ()
Sea Level Pressure  
Sea Level Pressure 29.85 in    
Wind  
Wind Speed 7 mph (West)    
Max Wind Speed 16 mph    
Max Gust Speed 29 mph    
Visibility 10 miles    
Events      
Averages and records for this station are not official NWS values.
T = Trace of Precipitation, MM = Missing Value Source: NWS Daily Summary

Daily Weather History Graph

Daily Weather History Graph

Search for Another Location

Airport or City:

Astronomy

May. 08, 2012 Rise Set
Actual Time 5:36 AM CDT 8:02 PM CDT
Civil Twilight 5:05 AM CDT 8:34 PM CDT
Nautical Twilight 4:25 AM CDT 9:14 PM CDT
Astronomical Twilight 3:41 AM CDT 9:59 PM CDT
Moon 11:14 PM CDT (5/8) 7:42 AM CDT (5/8)
Length of Visible Light 15h 29m
Length of Day
14h 25m
Waning Gibbous, 90% of the Moon is Illuminated
May 8
Waning Gibbous
May 12
Last Quarter
May 20
New
May 28
First Quarter
Jun 4
Full

Hourly Weather History & Observations

Time (CDT) Temp. Windchill Dew Point Humidity Pressure Visibility Wind Dir Wind Speed Gust Speed Precip Events Conditions
12:15 AM 51.8 °F - 50.0 °F 94% 29.86 in 10.0 mi WSW 3.5 mph - N/A   Clear
12:35 AM 50.0 °F - 46.4 °F 87% 29.86 in 10.0 mi WSW 4.6 mph - N/A   Scattered Clouds
12:55 AM 50.0 °F - 46.4 °F 87% 29.86 in 10.0 mi West 3.5 mph - N/A   Scattered Clouds
1:15 AM 50.0 °F - 46.4 °F 87% 29.86 in 10.0 mi West 6.9 mph - N/A   Clear
1:35 AM 50.0 °F - 46.4 °F 87% 29.86 in 10.0 mi WNW 8.1 mph - N/A   Clear
1:55 AM 50.0 °F - 46.4 °F 87% 29.86 in 10.0 mi WNW 8.1 mph - N/A   Clear
2:15 AM 50.0 °F - 46.4 °F 87% 29.86 in 10.0 mi WNW 8.1 mph - N/A   Clear
2:35 AM 50.0 °F - 46.4 °F 87% 29.86 in 10.0 mi WNW 8.1 mph - N/A   Mostly Cloudy
3:15 AM 50.0 °F - 46.4 °F 87% 29.86 in 10.0 mi WNW 8.1 mph - N/A   Mostly Cloudy
3:35 AM 50.0 °F - 44.6 °F 82% 29.85 in 10.0 mi West 8.1 mph - N/A   Scattered Clouds
3:55 AM 50.0 °F - 44.6 °F 82% 29.85 in 10.0 mi West 8.1 mph - N/A   Scattered Clouds
4:15 AM 50.0 °F - 44.6 °F 82% 29.86 in 10.0 mi West 8.1 mph - N/A   Scattered Clouds
4:35 AM 50.0 °F - 44.6 °F 82% 29.85 in 10.0 mi West 8.1 mph - N/A   Clear
4:55 AM 50.0 °F - 44.6 °F 82% 29.85 in 10.0 mi West 6.9 mph - N/A   Scattered Clouds
5:15 AM 48.2 °F - 44.6 °F 87% 29.85 in 10.0 mi West 4.6 mph - N/A   Scattered Clouds
5:35 AM 50.0 °F - 44.6 °F 82% 29.84 in 10.0 mi WNW 4.6 mph - N/A   Scattered Clouds
5:45 AM 50.0 °F - 44.6 °F 82% 29.84 in 10.0 mi West 6.9 mph - N/A   Scattered Clouds
7:45 AM 53.6 °F - 44.6 °F 72% 29.87 in 10.0 mi West 6.9 mph - N/A   Clear
8:45 AM 53.6 °F - 44.6 °F 72% 29.87 in 10.0 mi West 9.2 mph - N/A   Clear
9:45 AM 59.0 °F - 44.6 °F 59% 29.87 in 10.0 mi West 11.5 mph - N/A   Clear
10:45 AM 60.8 °F - 42.8 °F 52% 29.86 in 10.0 mi West 15.0 mph - N/A   Scattered Clouds
11:45 AM 62.6 °F - 42.8 °F 48% 29.87 in 10.0 mi West 13.8 mph - N/A   Mostly Cloudy
12:45 PM 60.8 °F - 41.0 °F 48% 29.86 in 10.0 mi West 15.0 mph - N/A   Mostly Cloudy
1:45 PM 60.8 °F - 42.8 °F 52% 29.85 in 10.0 mi West 11.5 mph - N/A   Overcast
2:45 PM 62.6 °F - 42.8 °F 48% 29.85 in 10.0 mi West 13.8 mph - N/A   Overcast
3:45 PM 62.6 °F - 42.8 °F 48% 29.83 in 10.0 mi West 11.5 mph - N/A   Overcast
4:45 PM 64.4 °F - 41.0 °F 42% 29.83 in 10.0 mi West 11.5 mph 23.0 mph N/A   Scattered Clouds
5:45 PM 62.6 °F - 39.2 °F 42% 29.82 in 10.0 mi West 11.5 mph - N/A   Mostly Cloudy
6:45 PM 60.8 °F - 39.2 °F 45% 29.83 in 10.0 mi West 16.1 mph - N/A   Mostly Cloudy
7:45 PM 55.4 °F - 44.6 °F 67% 29.85 in 10.0 mi NW 11.5 mph 28.8 mph N/A   Scattered Clouds
8:45 PM 53.6 °F - 46.4 °F 77% 29.86 in 10.0 mi West 11.5 mph - N/A   Mostly Cloudy
9:15 PM 51.8 °F - 44.6 °F 76% 29.86 in 10.0 mi West 4.6 mph - N/A   Overcast
9:35 PM 50.0 °F - 44.6 °F 82% 29.86 in 10.0 mi West 3.5 mph - N/A   Mostly Cloudy
9:55 PM 50.0 °F - 44.6 °F 82% 29.86 in 10.0 mi West 5.8 mph - N/A   Scattered Clouds
10:15 PM 50.0 °F - 44.6 °F 82% 29.86 in 10.0 mi West 5.8 mph - N/A   Scattered Clouds
10:35 PM 50.0 °F - 42.8 °F 76% 29.86 in 10.0 mi West 4.6 mph - N/A   Scattered Clouds
11:15 PM 48.2 °F - 42.8 °F 82% 29.86 in 10.0 mi West 5.8 mph - N/A   Clear
11:35 PM 46.4 °F 44.3 °F 42.8 °F 87% 29.86 in 10.0 mi West 4.6 mph - N/A   Clear
11:55 PM 46.4 °F 43.5 °F 42.8 °F 87% 29.86 in 10.0 mi West 5.8 mph - N/A   Clear